Home   Weather   Minas   Past weeks
Flag for Uruguay

Past Weather in Minas, Uruguay — Yesterday and Last 2 Weeks

Now
54 °F

Sunny.


Feels Like: 49 °F
Forecast: 51 / 35 °F
Wind: 15 mph from Northwest

Location: Capitan Corbeta

Current Time: Jun 26, 2019 at 1:34:53 pm

Latest Report: Jun 26, 2019 at 1:00 pm


Visibility: 10 mi

Pressure: 29.98 "Hg

Humidity: 38%

Dew Point: 28 °F

Location of MinasLocation

Past Weather in Minas — Graph

°F

Minas Temperature Yesterday

Maximum temperature yesterday: 73 °F (at 3:00 am)
Minimum temperature yesterday: 50 °F (at 2:00 pm)
Average temperature yesterday: 56 °F

High & Low Weather Summary for the Past Weeks

 TemperatureHumidityPressure
High75 °F (Jun 23, 1:00 pm)100% (Jun 17, 8:00 am)30.27 "Hg (Jun 17, 8:00 am)
Low41 °F (Jun 21, 6:00 am)33% (Jun 26, 12:00 pm)29.36 "Hg (Jun 25, 3:00 am)
Average59 °F83%29.96 "Hg
* Reported Jun 11 12:00 pm — Jun 26 12:00 pm, Minas. Weather by CustomWeather, © 2019

Note: Actual official high and low records may vary slightly from our data, if they occured in-between our weather recording intervals... More about our weather records

Advertising

Minas Weather History for the Previous 24 Hours

Scroll right to see more
 ConditionsComfort  
Time TempWeatherWind HumidityBarometerVisibility
12:00 pm
Wed, Jun 26
54 °FSunny.15 mph33%30.01 "Hg10 mi
11:00 am50 °FPassing clouds.9 mph37%30.01 "HgN/A
10:00 am46 °FPassing clouds.7 mph40%29.98 "HgN/A
9:00 am41 °FPassing clouds.6 mph61%29.98 "HgN/A
8:00 am48 °FPassing clouds.9 mph50%29.92 "HgN/A
7:00 am48 °FPassing clouds.15 mph54%29.89 "HgN/A
6:00 am48 °FPassing clouds.14 mph50%29.89 "HgN/A
5:00 am48 °FPassing clouds.17 mph58%29.86 "HgN/A
4:00 am50 °FPassing clouds.14 mph50%29.86 "HgN/A
3:00 am50 °FPassing clouds.17 mph58%29.86 "HgN/A
9:00 pm
Tue, Jun 25
50 °FPassing clouds.20 mph50%29.83 "HgN/A
8:00 pm50 °FPassing clouds.14 mph54%29.83 "HgN/A
7:00 pm50 °FPassing clouds.18 mph54%29.80 "HgN/A
6:00 pm50 °FPassing clouds.22 mph54%29.77 "HgN/A
5:00 pm50 °FPartly sunny.22 mph50%29.77 "HgN/A
4:00 pm50 °FBroken clouds.18 mph50%29.74 "HgN/A
3:00 pm50 °FPartly sunny.23 mph54%29.71 "HgN/A
2:00 pm50 °FBroken clouds.23 mph58%29.68 "HgN/A
1:00 pm52 °FMostly cloudy.33 mph58%29.68 "HgN/A
Weather by CustomWeather, © 2019

See weather overview